sat.trackr.live / text

‹ back to catalog

STARLINK-1296

NORAD 45412 · 2020-019BE

PAYLOAD ACTIVE UNKNOWN

§ Identity

Operator
Country
US
Launch date
2020-03-18
Launch site
AFETR
Launch vehicle
Mass (kg)
RCS (m²)

Purposes: comms

External: N2YO · Heavens-Above · Gunter

§ Orbital elements

Epoch: 2026-09-20T01:36:53.646048Z

Period
93.06 min
Inclination
53.1512°
Eccentricity
0.0003999
Mean motion
15.47342075 rev/d
Perigee alt
421.8 km
Apogee alt
427.2 km
Semi-major
6,802.6 km
B*
8.0724e-4
RAAN
294.1759°
Arg perigee
33.6101°
Mean anomaly
326.5160°
Rev number
35,990

§ Raw data

STARLINK-12961 45412U 20019BE  26263.06728757  .00041709  00000+0  80724-3 0  99932 45412  53.1512 294.1759 0003999  33.6101 326.5160 15.47342075359903

JSON: /api/v1/satellites/45412 · /tle

For live sub-satellite position, see the globe view (requires WebGL).

§ Visibility from observer

Set your observer location to see the next 7 days of passes ≥ 10°. The values pass through the URL so the page stays shareable.

No JS? Fill the form by hand. The geolocation button needs JavaScript.